| time (UTC) | temp F | wind direction | speed MPH | gust MPH | rain 1hr in | rain 24hr in | rain mn in | humidity % | barometer mb |
| 20260508102503 | 53 | 81 | 1.0 | 2.0 | 0.04 | 0.52 | 0.04 | 86 | 1011.8 |
| 20260508102003 | 53 | 148 | 1.0 | 2.0 | 0.04 | 0.52 | 0.04 | 85 | 1011.7 |
| 20260508101503 | 53 | 193 | 2.0 | 4.0 | 0.03 | 0.51 | 0.03 | 84 | 1011.7 |
| 20260508101003 | 53 | 203 | 3.0 | 6.0 | 0.00 | 0.48 | 0.00 | 83 | 1011.9 |
| 20260508100503 | 53 | 188 | 2.0 | 6.0 | 0.00 | 0.48 | 0.00 | 82 | 1011.9 |
| 20260508100003 | 53 | 156 | 1.0 | 3.0 | 0.00 | 0.48 | 0.00 | 81 | 1011.8 |
| 20260508095503 | 54 | 136 | 1.0 | 3.0 | 0.00 | 0.48 | 0.00 | 82 | 1011.5 |
| 20260508095003 | 54 | 113 | 1.0 | 3.0 | 0.00 | 0.48 | 0.00 | 81 | 1011.2 |
| 20260508094503 | 54 | 89 | 1.0 | 3.0 | 0.00 | 0.48 | 0.00 | 80 | 1011.4 |
| 20260508094003 | 53 | 109 | 1.0 | 4.0 | 0.00 | 0.48 | 0.00 | 81 | 1011.6 |
| 20260508093503 | 53 | 101 | 2.0 | 4.0 | 0.00 | 0.48 | 0.00 | 81 | 1011.5 |
| 20260508093024 | 53 | 77 | 2.0 | 6.0 | 0.00 | 0.48 | 0.00 | 81 | 1011.3 |
| 20260508092503 | 53 | 65 | 1.0 | 6.0 | 0.00 | 0.48 | 0.00 | 81 | 1011.6 |
| 20260508092003 | 53 | 44 | 1.0 | 6.0 | 0.00 | 0.48 | 0.00 | 81 | 1011.3 |
| 20260508091503 | 54 | 37 | 1.0 | 6.0 | 0.00 | 0.48 | 0.00 | 81 | 1011.5 |
| 20260508091024 | 54 | 23 | 1.0 | 3.0 | 0.00 | 0.48 | 0.00 | 80 | 1011.5 |
| 20260508090503 | 54 | 14 | 1.0 | 3.0 | 0.00 | 0.48 | 0.00 | 81 | 1011.4 |
| 20260508090003 | 53 | 66 | 2.0 | 4.0 | 0.00 | 0.48 | 0.00 | 83 | 1011.3 |
| 20260508085503 | 52 | 73 | 2.0 | 8.0 | 0.00 | 0.48 | 0.00 | 84 | 1011.4 |
| 20260508085003 | 51 | 128 | 2.0 | 10.0 | 0.00 | 0.48 | 0.00 | 84 | 1011.4 |
| 20260508084503 | 51 | 151 | 2.0 | 10.0 | 0.00 | 0.48 | 0.00 | 84 | 1011.7 |
| 20260508084003 | 51 | 83 | 1.0 | 4.0 | 0.00 | 0.48 | 0.00 | 85 | 1011.6 |
| 20260508083503 | 51 | 82 | 2.0 | 8.0 | 0.00 | 0.48 | 0.00 | 85 | 1011.5 |
| 20260508083003 | 51 | 87 | 3.0 | 8.0 | 0.00 | 0.48 | 0.00 | 86 | 1011.3 |
| 20260508082503 | 51 | 80 | 3.0 | 8.0 | 0.00 | 0.48 | 0.00 | 86 | 1011.3 |
| 20260508082003 | 51 | 57 | 4.0 | 8.0 | 0.00 | 0.48 | 0.00 | 86 | 1010.8 |
| 20260508081504 | 50 | 56 | 4.0 | 8.0 | 0.00 | 0.48 | 0.00 | 86 | 1010.6 |
| 20260508081003 | 51 | 62 | 3.0 | 7.0 | 0.00 | 0.48 | 0.00 | 86 | 1011.3 |
| 20260508080503 | 51 | 57 | 3.0 | 7.0 | 0.00 | 0.48 | 0.00 | 86 | 1011.3 |
| 20260508080003 | 50 | 52 | 4.0 | 8.0 | 0.00 | 0.48 | 0.00 | 87 | 1011.1 |
| 20260508075503 | 50 | 56 | 3.0 | 8.0 | 0.00 | 0.48 | 0.00 | 88 | 1011.2 |
| 20260508075003 | 49 | 63 | 3.0 | 6.0 | 0.00 | 0.48 | 0.00 | 88 | 1011.1 |
| 20260508074501 | 49 | 56 | 3.0 | 6.0 | 0.00 | 0.48 | 0.00 | 88 | 1011.3 |
| 20260508074001 | 49 | 49 | 2.0 | 6.0 | 0.00 | 0.48 | 0.00 | 88 | 1011.2 |
| 20260507132004 | 51 | 129 | 6.0 | 15.0 | 0.12 | 0.12 | 0.12 | 91 | 1010.6 |
| 20260507131504 | 51 | 96 | 8.0 | 17.0 | 0.12 | 0.12 | 0.12 | 90 | 1010.7 |
| 20260507131004 | 52 | 87 | 8.0 | 17.0 | 0.12 | 0.12 | 0.12 | 90 | 1010.3 |
| 20260507130504 | 53 | 86 | 7.0 | 16.0 | 0.12 | 0.12 | 0.12 | 89 | 1009.8 |
| 20260507130004 | 52 | 115 | 8.0 | 16.0 | 0.11 | 0.11 | 0.11 | 87 | 1009.9 |
| 20260507125525 | 52 | 161 | 7.0 | 15.0 | 0.10 | 0.10 | 0.11 | 85 | 1010.4 |
| 20260507125004 | 53 | 146 | 7.0 | 17.0 | 0.07 | 0.07 | 0.07 | 83 | 1010.6 |
| 20260507124504 | 54 | 91 | 7.0 | 17.0 | 0.05 | 0.05 | 0.05 | 83 | 1010.3 |
| 20260507124004 | 55 | 88 | 9.0 | 18.0 | 0.03 | 0.03 | 0.03 | 80 | 1009.9 |
| 20260507123504 | 56 | 85 | 8.0 | 18.0 | 0.03 | 0.03 | 0.03 | 78 | 1009.7 |
| 20260507123025 | 58 | 87 | 5.0 | 15.0 | 0.02 | 0.02 | 0.02 | 80 | 1009.7 |
| 20260507122525 | 61 | 122 | 3.0 | 11.0 | 0.01 | 0.01 | 0.01 | 72 | 1009.5 |
| 20260507122004 | 62 | 176 | 2.0 | 6.0 | 0.00 | 0.00 | 0.00 | 65 | 1009.8 |
| 20260507121504 | 62 | 144 | 2.0 | 7.0 | 0.00 | 0.00 | 0.00 | 63 | 1009.9 |
| 20260507121004 | 62 | 100 | 3.0 | 7.0 | 0.00 | 0.00 | 0.00 | 62 | 1009.5 |
| 20260507120525 | 63 | 98 | 3.0 | 8.0 | 0.00 | 0.00 | 0.00 | 61 | 1009.6 |
| 20260507120005 | 63 | 96 | 3.0 | 8.0 | 0.00 | 0.00 | 0.00 | 61 | 1009.9 |
| 20260507115525 | 63 | 89 | 3.0 | 7.0 | 0.00 | 0.00 | 0.00 | 62 | 1009.8 |
| 20260507115004 | 63 | 84 | 2.0 | 7.0 | 0.00 | 0.00 | 0.00 | 61 | 1009.7 |
| 20260507114525 | 64 | 79 | 2.0 | 6.0 | 0.00 | 0.00 | 0.00 | 60 | 1009.7 |
| 20260507114004 | 62 | 79 | 2.0 | 4.0 | 0.00 | 0.00 | 0.00 | 63 | 1009.8 |
| 20260507113504 | 61 | 64 | 2.0 | 6.0 | 0.00 | 0.00 | 0.00 | 64 | 1009.8 |
| 20260507113004 | 61 | 37 | 2.0 | 6.0 | 0.00 | 0.00 | 0.00 | 65 | 1009.9 |
| 20260507112504 | 61 | 30 | 2.0 | 4.0 | 0.00 | 0.00 | 0.00 | 66 | 1010.1 |
| 20260507112004 | 61 | 51 | 2.0 | 6.0 | 0.00 | 0.00 | 0.00 | 65 | 1010.0 |
| 20260507111506 | 61 | 67 | 2.0 | 6.0 | 0.00 | 0.00 | 0.00 | 65 | 1010.1 |
| 20260507111004 | 61 | 115 | 3.0 | 8.0 | 0.00 | 0.00 | 0.00 | 66 | 1010.3 |
| 20260507110504 | 61 | 155 | 3.0 | 8.0 | 0.00 | 0.00 | 0.00 | 66 | 1010.4 |
| 20260507110004 | 61 | 101 | 3.0 | 8.0 | 0.00 | 0.00 | 0.00 | 66 | 1010.3 |
| 20260507105504 | 61 | 87 | 3.0 | 8.0 | 0.00 | 0.00 | 0.00 | 66 | 1010.4 |
| 20260507105004 | 61 | 108 | 2.0 | 4.0 | 0.00 | 0.00 | 0.00 | 65 | 1010.4 |
| 20260507104505 | 61 | 88 | 2.0 | 4.0 | 0.00 | 0.00 | 0.00 | 66 | 1010.5 |
| 20260507104025 | 61 | 14 | 2.0 | 4.0 | 0.00 | 0.00 | 0.00 | 66 | 1010.5 |
| 20260507103504 | 60 | 31 | 3.0 | 7.0 | 0.00 | 0.00 | 0.00 | 68 | 1010.5 |
| 20260507103004 | 59 | 44 | 3.0 | 7.0 | 0.00 | 0.00 | 0.00 | 68 | 1010.7 |